GW7183 Weather Reports


time (UTC)temp
F
wind
direction
speed
knots
gust
knots
rain 1hr
in
rain 24hr
in
rain mn
in
humidity
%
barometer
mb
20260506073047 44 0 0.0 1.7 7.72 9.70 2.96 93 1006.7
20260506073025 44 336 0.9 1.7 0.05 1.42 0.26 93 1006.9
20260506073010 44 342 0.9 1.7 0.05 1.42 0.26 93 1006.8
20260506071551 44 0 0.0 1.7 7.73 9.44 2.70 92 1006.7
20260506071513 44 338 0.9 1.7 0.06 1.40 0.24 93 1007.0
20260506061549 45 0 0.0 0.9 9.04 8.67 1.93 92 1006.8
20260506061528 45 65 0.0 0.9 0.10 1.34 0.18 93 1007.0
20260506061510 45 59 0.0 0.9 0.10 1.34 0.18 93 1006.9
20260506050105 46 0 0.0 1.7 9.00 7.64 9.00 93 1007.7
20260506044548 46 0 0.0 1.7 9.00 7.38 6.43 93 1007.6
20260506044529 46 325 0.9 1.7 0.08 1.22 0.06 93 1007.8
20260506044518 46 319 0.9 1.7 0.08 1.22 0.06 93 1007.9
20260506043044 46 0 0.0 2.6 9.01 7.12 3.87 92 1007.8
20260506043023 46 306 0.9 3.5 0.08 1.20 0.04 93 1008.0
20260506041559 47 13 0.0 2.6 7.73 6.86 1.30 93 1008.0
20260506041536 47 25 0.9 1.7 0.08 1.17 0.02 94 1008.2
20260506041527 47 18 0.9 1.7 0.08 1.17 0.02 94 1008.2
20260506040043 47 0 0.0 0.9 9.01 6.74 0.00 93 1008.2
20260506040026 47 298 0.0 2.6 0.09 1.16 0.00 94 1008.3
20260506040023 47 294 0.0 2.6 0.09 1.16 0.00 94 1008.5
20260506034552 47 0 0.0 1.7 9.02 6.48 6.48 93 1008.2
20260506034534 47 338 0.0 1.7 0.10 1.14 1.14 93 1008.5
20260506034512 47 344 0.0 1.7 0.10 1.14 1.14 93 1008.5
20260506033046 47 36 0.0 1.7 9.06 6.22 6.22 93 1008.6
20260506033020 47 2 0.0 3.5 0.13 1.12 1.12 93 1008.7
20260506033017 47 9 0.0 3.5 0.13 1.12 1.12 93 1008.7
20260506031551 47 0 0.0 2.6 7.80 5.96 5.96 93 1008.7
20260506031521 47 288 0.0 2.6 0.14 1.10 1.10 93 1008.8
20260506030050 47 0 0.0 1.7 9.10 5.83 5.83 93 1008.5
20260506030026 47 259 0.9 1.7 0.16 1.07 1.07 94 1008.6
20260506030022 47 262 0.9 1.7 0.16 1.07 1.07 94 1008.6
20260506024550 47 0 0.0 1.7 9.13 5.58 5.58 93 1008.1
20260506024530 47 360 0.0 2.6 0.20 1.04 1.04 94 1008.3
20260506024523 47 360 0.0 2.6 0.20 1.04 1.04 94 1008.2
20260506023048 48 0 0.0 0.0 9.14 5.32 5.32 93 1008.1
20260506023027 48 343 0.0 0.9 0.22 0.99 0.99 94 1008.1
20260506023018 48 349 0.0 0.9 0.22 0.99 0.99 94 1008.2
20260506021548 48 45 0.0 1.7 9.16 5.18 5.18 93 1008.0
20260506021522 48 330 0.9 1.7 0.23 0.96 0.96 94 1008.2
20260506021518 48 324 0.9 1.7 0.23 0.96 0.96 94 1008.2
20260506020052 48 0 0.0 0.0 9.14 4.92 4.92 93 1008.1
20260506020026 48 248 0.0 0.9 0.22 0.91 0.91 94 1008.3
20260506020004 48 245 0.0 0.9 0.22 0.91 0.91 94 1008.2
20260506014545 48 0 0.0 0.9 7.83 4.66 4.66 93 1008.1
20260506014508 48 244 0.0 0.9 0.16 0.84 0.84 94 1008.1
20260506013053 48 0 0.0 0.9 5.20 4.40 4.40 93 1008.0
20260506013023 48 253 0.0 1.7 0.09 0.77 0.77 94 1008.1
20260506013015 48 256 0.0 1.7 0.09 0.77 0.77 94 1008.0
20260506011543 48 0 0.0 1.7 5.17 4.27 4.27 93 1007.8
20260506011535 48 39 0.9 1.7 0.06 0.73 0.73 94 1007.5
20260506011524 48 45 0.9 1.7 0.06 0.73 0.73 94 1007.7
20260506010043 48 99 0.0 1.7 5.17 4.01 4.01 93 1007.6
20260506010025 48 69 0.9 1.7 0.05 0.69 0.69 93 1007.8
20260506010022 48 64 0.9 1.7 0.05 0.69 0.69 93 1007.6
20260506004546 47 0 0.0 1.7 6.46 3.88 3.88 93 1007.8
20260506004536 48 312 0.0 2.6 0.08 0.68 0.68 93 1007.7
20260506004505 48 333 0.0 2.6 0.08 0.68 0.68 93 1007.9
20260506003041 47 0 0.0 1.7 7.77 3.88 3.88 93 1007.5
20260506003011 47 32 0.9 1.7 0.12 0.68 0.68 93 1007.6
20260506003008 47 25 0.9 1.7 0.12 0.68 0.68 93 1007.4
20260506001553 47 88 0.0 1.7 9.12 3.75 3.75 93 1007.5
20260506001516 47 203 0.9 1.7 0.21 0.67 0.67 93 1007.7
20260506001511 47 202 0.9 1.7 0.21 0.67 0.67 93 1007.7
20260506000044 47 0 0.0 1.7 9.10 3.49 3.49 92 1007.9
20260506000022 47 270 0.0 3.5 0.20 0.64 0.64 93 1008.1
20260506000018 47 267 0.0 3.5 0.20 0.64 0.64 93 1008.0
20260505234550 47 0 0.0 1.7 7.14 3.23 3.23 92 1007.8
20260505234524 47 264 0.9 2.6 0.17 0.60 0.60 92 1008.0
20260505233052 48 0 0.0 6.1 7.77 3.10 3.10 91 1007.6
20260505233031 48 84 0.9 7.0 0.14 0.56 0.56 92 1007.9
20260505233011 48 98 0.9 7.8 0.14 0.56 0.56 92 1007.8
20260505231549 49 339 0.9 3.5 7.73 2.84 2.84 91 1007.7
20260505231513 49 277 1.7 4.3 0.07 0.46 0.46 92 1007.8
20260505231510 49 281 1.7 4.3 0.07 0.46 0.46 92 1007.8
20260505230111 49 0 0.0 1.7 6.45 2.58 2.58 91 1007.6
20260505230015 49 330 0.9 3.5 0.07 0.44 0.44 92 1007.6
20260505224547 50 35 0.0 1.7 6.45 2.45 2.45 92 1007.5
20260505224523 50 347 0.9 2.6 0.08 0.43 0.43 92 1007.4
20260505224520 50 341 0.9 2.6 0.08 0.43 0.43 92 1007.6
20260505223054 50 0 0.0 1.7 7.76 2.33 2.33 91 1007.7
20260505223024 50 308 0.9 1.7 0.14 0.42 0.42 92 1007.8
20260505223006 50 303 0.9 1.7 0.14 0.42 0.42 92 1007.9
20260505221557 50 0 0.0 5.2 6.54 2.07 2.07 90 1007.9
20260505221528 50 328 0.0 7.0 0.24 0.39 0.39 91 1007.9
20260505221510 50 307 0.0 7.8 0.24 0.39 0.39 91 1008.0
20260505220056 51 0 0.0 3.5 7.81 1.94 1.94 90 1007.5
20260505220029 51 304 1.7 5.2 0.22 0.37 0.37 91 1007.5
20260505220027 51 309 1.7 4.3 0.22 0.37 0.37 91 1007.5
20260505214546 53 359 2.6 7.8 7.82 1.81 1.81 89 1007.7
20260505214528 53 313 2.6 8.7 0.24 0.35 0.35 90 1007.7
20260505214521 53 308 2.6 9.6 0.24 0.35 0.35 90 1007.7
20260505213044 55 63 0.0 2.6 6.52 1.55 1.55 92 1007.1
20260505213024 55 56 0.9 3.5 0.19 0.28 0.28 92 1007.3
20260505213021 55 61 0.9 3.5 0.19 0.28 0.28 92 1007.3
20260505211557 55 0 0.0 1.7 5.15 1.41 1.41 91 1007.1
20260505211524 55 304 0.0 1.7 0.06 0.15 0.15 92 1007.2
20260505211507 55 298 0.0 1.7 0.06 0.15 0.15 92 1007.1
20260505210051 55 0 0.0 4.3 2.58 1.16 1.16 91 1007.0
20260505210013 55 291 0.0 5.2 0.07 0.15 0.15 91 1007.1
20260505204546 55 0 0.0 6.1 2.57 1.03 1.03 90 1007.4
20260505204519 55 291 0.9 6.1 0.03 0.11 0.11 91 1007.4
20260505203046 55 0 0.0 2.6 3.85 9.02 9.02 89 1007.2
20260505203021 55 297 1.7 3.5 0.02 0.09 0.09 89 1007.2
20260505203019 55 293 1.7 3.5 0.02 0.09 0.09 89 1007.1
20260505201549 56 0 0.0 2.6 6.42 9.02 9.02 89 1007.1
20260505201527 56 311 0.9 4.3 0.04 0.09 0.09 89 1007.1
20260505201524 56 306 0.9 5.2 0.04 0.09 0.09 89 1007.0
20260505200028 57 300 2.6 4.3 0.05 0.08 0.08 86 1007.2
20260505200015 57 295 2.6 5.2 0.05 0.08 0.08 86 1007.2
20260505194548 59 0 0.9 2.6 7.74 7.74 7.74 85 1007.1
20260505194520 59 331 0.9 3.5 0.07 0.08 0.08 85 1007.1
20260505194514 59 325 0.9 3.5 0.07 0.08 0.08 85 1007.1
20260505193102 59 0 0.0 0.9 5.17 5.17 5.17 83 1007.5
20260505193030 59 258 0.0 0.9 0.06 0.07 0.07 83 1007.4
20260505193018 59 255 0.0 0.9 0.06 0.07 0.07 83 1007.4
20260505191552 60 0 0.0 1.7 2.59 2.59 2.59 79 1007.5
20260505191527 60 220 0.9 2.6 0.04 0.05 0.05 79 1007.5
20260505191523 60 221 0.9 2.6 0.04 0.05 0.05 79 1007.5
20260505190050 61 0 0.0 5.2 1.29 1.29 1.29 73 1007.6
20260505190025 62 234 2.6 7.8 0.02 0.03 0.03 72 1007.6
20260505184548 63 0 0.9 9.6 0.00 0.00 0.00 66 1007.5
20260505184528 63 286 2.6 12.2 0.00 0.01 0.01 65 1007.6
20260505184510 63 253 2.6 13.0 0.00 0.01 0.01 65 1007.6
20260505183053 63 0 0.0 4.3 0.00 0.00 0.00 65 1007.4
20260505183024 63 262 4.3 7.8 0.00 0.01 0.01 64 1007.5
20260505183013 63 259 4.3 7.8 0.00 0.01 0.01 64 1007.5
20260505181556 63 284 2.6 11.3 0.00 0.00 0.00 64 1007.4
20260505181522 64 260 4.3 12.2 0.00 0.01 0.01 63 1007.5
20260505181520 64 263 4.3 11.3 0.00 0.01 0.01 63 1007.5
20260505180050 64 216 4.3 10.4 0.00 0.00 0.00 63 1007.3
20260505180027 64 236 6.1 13.0 0.00 0.01 0.01 62 1007.4
20260505174548 64 347 4.3 10.4 0.00 0.00 0.00 63 1007.2
20260505174527 64 251 4.3 13.0 0.00 0.01 0.01 62 1007.3
20260505174524 64 254 4.3 12.2 0.00 0.01 0.01 62 1007.3
20260505173045 65 322 3.5 10.4 0.00 0.00 0.00 62 1007.1
20260505173027 65 238 4.3 13.0 0.00 0.01 0.01 61 1007.2
20260505173014 65 250 4.3 13.9 0.00 0.01 0.01 61 1007.1
20260505171544 65 307 5.2 11.3 0.00 0.00 0.00 60 1007.0
20260505171517 65 304 5.2 13.9 0.00 0.01 0.01 59 1007.1
20260505170044 65 308 4.3 11.3 0.00 0.00 0.00 60 1006.9
20260505170026 65 239 5.2 13.0 0.00 0.01 0.01 59 1007.0
20260505170022 65 237 6.1 13.0 0.00 0.01 0.01 59 1007.0
20260505164550 66 295 5.2 13.0 0.00 0.00 0.00 59 1006.7
20260505164536 66 219 5.2 17.4 0.00 0.01 0.01 58 1006.8
20260505164523 66 217 6.1 19.1 0.00 0.01 0.01 58 1006.8
20260505163048 66 231 4.3 11.3 0.00 0.00 0.00 57 1006.6
20260505163012 66 252 4.3 14.8 0.00 0.01 0.01 56 1006.7
20260505163008 66 249 4.3 14.8 0.00 0.01 0.01 56 1006.6
20260505161547 67 330 5.2 10.4 0.00 0.00 0.00 56 1006.6
20260505161518 67 229 6.1 14.8 0.00 0.01 0.01 55 1006.6
20260505153050 66 263 5.2 11.3 0.00 0.00 0.00 60 1006.2
20260505153011 66 279 7.0 17.4 0.00 0.01 0.01 58 1006.3
20260505153009 66 283 6.1 16.5 0.00 0.01 0.01 58 1006.3
20260505151548 65 293 4.3 10.4 0.00 0.00 0.00 61 1006.2
20260505151511 65 295 5.2 13.0 0.00 0.01 0.01 62 1006.4
20260505151508 65 290 5.2 13.9 0.00 0.01 0.01 62 1006.3
20260505124550 60 298 6.1 11.3 0.00 0.00 0.00 70 1005.7
20260505124533 60 222 7.0 13.9 0.00 0.01 0.01 70 1005.6
20260505123054 60 290 4.3 11.3 0.00 0.00 0.00 70 1005.5
20260505123021 60 167 4.3 11.3 0.01 0.01 0.01 70 1005.5
20260505123012 60 168 5.2 13.9 0.01 0.01 0.01 70 1005.5
20260505121551 60 210 0.0 5.2 0.00 0.00 0.00 70 1005.7
20260505121527 60 168 6.1 11.3 0.01 0.01 0.01 70 1005.5
20260505121506 60 167 5.2 9.6 0.01 0.01 0.01 70 1005.6
20260505120049 60 0 0.0 7.8 0.00 0.00 0.00 70 1005.4
20260505120010 60 167 1.7 7.0 0.01 0.01 0.01 70 1005.4
20260505120007 60 168 2.6 8.7 0.01 0.01 0.01 70 1005.4
20260505114544 60 264 2.6 10.4 0.00 0.00 0.00 70 1005.5
20260505114516 60 167 2.6 12.2 0.01 0.01 0.01 70 1005.6
20260505114513 60 168 3.5 14.8 0.01 0.01 0.01 70 1005.5
20260505113053 62 238 3.5 9.6 0.00 0.00 0.00 63 1005.0
20260505113022 62 167 3.5 12.2 0.00 0.00 0.00 63 1005.1
20260505113014 62 168 4.3 14.8 0.00 0.00 0.00 63 1005.0
20260505111547 63 230 0.0 7.8 0.00 0.00 0.00 62 1005.0
20260505111523 63 167 3.5 11.3 0.00 0.00 0.00 62 1005.1
20260505111512 63 168 4.3 13.9 0.00 0.00 0.00 62 1005.0
20260505101545 63 277 0.0 11.3 0.00 0.00 0.00 62 1004.2
20260505101520 63 267 6.1 13.9 0.00 0.00 0.00 62 1004.4
20260505101515 63 264 6.1 13.9 0.00 0.00 0.00 62 1004.4
20260505100049 63 245 3.5 7.8 0.00 0.00 0.00 62 1003.9
20260505100025 63 230 5.2 8.7 0.00 0.00 0.00 62 1004.0
20260505100017 63 228 5.2 8.7 0.00 0.00 0.00 62 1004.0
20260505094547 63 0 3.5 7.8 0.00 0.00 0.00 62 1003.8
20260505094516 63 261 3.5 11.3 0.00 0.00 0.00 61 1003.9
20260505094513 63 252 3.5 10.4 0.00 0.00 0.00 61 1003.8
20260505093048 63 205 4.3 7.8 0.00 0.00 0.00 62 1003.5
20260505093016 63 214 5.2 9.6 0.00 0.00 0.00 62 1003.5
20260505091540 63 0 0.0 7.8 0.00 0.00 0.00 62 1003.4
20260505091520 63 231 5.2 11.3 0.00 0.00 0.00 62 1003.3
20260505091513 63 229 5.2 12.2 0.00 0.00 0.00 62 1003.5
20260505090048 63 0 2.6 10.4 0.00 0.00 0.00 62 1003.5
20260505090033 63 202 3.5 13.9 0.00 0.00 0.00 62 1003.6
20260505090005 63 206 3.5 13.0 0.00 0.00 0.00 62 1003.4
20260505084552 63 267 5.2 12.2 0.00 0.00 0.00 61 1003.5
20260505084527 63 239 6.1 12.2 0.00 0.00 0.00 61 1003.5
20260505083057 64 292 5.2 11.3 0.00 0.00 0.00 61 1003.6
20260505083013 64 205 7.0 14.8 0.00 0.00 0.00 61 1003.7
20260505083011 64 206 7.0 13.9 0.00 0.00 0.00 61 1003.6
20260505081555 64 266 5.2 10.4 0.00 0.00 0.00 61 1003.3
20260505081519 64 241 7.0 11.3 0.00 0.00 0.00 61 1003.2
20260505081515 64 239 7.0 12.2 0.00 0.00 0.00 61 1003.4